Regional Weather Roundup
Issued by NWS

Home | Current Version | Previous Version | Graphics & Text | Print | Product List | Glossary Off
Versions: 1 2 3 4 5 6 7 8 9 10 11 12 13 14 15 16 17 18 19 20 21 22 23 24 25 26 27 28 29 30 31 32 33 34 35 36 37 38 39 40 41 42 43 44 45 46 47 48 49 50

000
ASUS43 KMKX 271011
RWRWI

WISCONSIN REGIONAL WEATHER ROUNDUP
NATIONAL WEATHER SERVICE MILWAUKEE/SULLIVAN WI
500 AM CDT SAT AUG 27 2016

NOTE: "FAIR" INDICATES FEW OR NO CLOUDS BELOW 12,000 FEET WITH NO
SIGNIFICANT WEATHER AND/OR OBSTRUCTIONS TO VISIBILITY.

WIZ001-002-006>008-014>016-023>028-271100-
NORTHWEST WISCONSIN

CITY           SKY/WX    TMP DP  RH WIND       PRES   REMARKS
SUPERIOR ARPT  CLOUDY    52  52 100 CALM      30.10S
ASHLAND        CLOUDY    54  52  93 CALM      30.12F
HAYWARD        CLOUDY    54  52  93 CALM      30.11F
SIREN          CLOUDY    57  55  94 CALM      30.09F
CUMBERLAND     CLOUDY    55  54  94 E3        30.09F
RICE LAKE      CLOUDY    58  55  88 E3        30.10F
CHETEK         NOT AVBL
LADYSMITH      CLOUDY    57  54  88 E5        30.13F
EAU CLAIRE     CLOUDY    62  57  83 E5        30.08F
MENOMONIE      CLOUDY    60  58  93 CALM      30.09S
NEW RICHMOND   CLOUDY    60  58  93 E5        30.08S
OSCEOLA        CLOUDY    60  60 100 CALM      30.10F
$$

WIZ003>005-009-010-017-018-271100-
NORTH CENTRAL WISCONSIN

CITY           SKY/WX    TMP DP  RH WIND       PRES   REMARKS
MANITOWISH WTR NOT AVBL
ARBOR VITAE    CLOUDY    57  55  92 CALM      30.14F
WOODRUFF       CLOUDY    57  55  92 CALM      30.14F
RHINELANDER    CLOUDY    57  55  93 SE3       30.16S
EAGLE RIVER    CLOUDY    53  53 100 CALM      30.15F
LAND O LAKES   CLOUDY    50  50 100 CALM      30.16F
PHILLIPS       CLOUDY    54  54  97 CALM      30.13S
TOMAHAWK       CLOUDY    55  54  95 CALM      30.15S
MEDFORD        CLOUDY    57  57 100 SE3       30.12F
MERRILL        CLOUDY    57  57 100 CALM      30.14F
$$

WIZ029-030-035-036-043>047-271100-
CENTRAL WISCONSIN

CITY           SKY/WX    TMP DP  RH WIND       PRES   REMARKS
WAUSAU         CLOUDY    59  58  96 CALM      30.13S
MOSINEE        CLOUDY    57  57 100 E3        30.14F
MARSHFIELD     CLOUDY    60  56  86 E6        30.12F
STEVENS POINT  CLOUDY    58  57  99 E3        30.14S
WAUPACA        CLOUDY    62  62  98 N3        30.13S
WAUTOMA        LGT RAIN  60  59  96 N5        30.12
WISC RAPIDS    LGT RAIN  60  59  96 E5        30.13F
CAMP DOUGLAS   LGT RAIN  61  59  94 E6        30.10F
$$

WIZ011>013-019>022-031-037>040-048>050-271100-
NORTHEAST WISCONSIN

CITY           SKY/WX    TMP DP  RH WIND       PRES   REMARKS
ANTIGO         LGT RAIN  56  55  97 E6        30.15F
SHAWANO        DRIZZLE   62  60  93 CALM      30.14F
OCONTO         NOT AVBL
STURGEON BAY   LGT RAIN  63  62  97 W3        30.17R
GREEN BAY      LGT RAIN  62  62 100 N3        30.13S
MANITOWOC      LGT RAIN  63  60  90 CALM      30.15R
APPLETON       RAIN      63  55  77 E5        30.12F
CLINTONVILLE   LGT RAIN  61  59  94 N3        30.13F
OSHKOSH        RAIN      64  61  90 NE3       30.12S
$$

WIZ032>034-041-042-053>061-271100-
SOUTHWEST WISCONSIN

CITY           SKY/WX    TMP DP  RH WIND       PRES   REMARKS
LA CROSSE      CLOUDY    63  60  90 E5        30.06F
SPARTA         LGT RAIN  60  60  99 E3        30.09F
VIROQUA        CLOUDY    60  60 100 NE7       30.08F
BOSCOBEL       LGT RAIN  64  62  93 E7        30.07F
PRAIRIE DU CHI DRIZZLE   61  60  96 CALM      30.04F
PLATTEVILLE    CLOUDY    63  63 100 NE10      30.07R
$$

WIZ056-057-062-063-064-067-068-271100-
SOUTH CENTRAL WISCONSIN

CITY           SKY/WX    TMP DP  RH WIND       PRES   REMARKS
REEDSBURG      NOT AVBL
BARABOO/DELLS  DRIZZLE   61  59  94 E8        30.09F
LONE ROCK      LGT RAIN  63  61  93 E7        30.08F
MINERAL POINT  RAIN      63  63 100 NE8       30.08R
MADISON        HVY RAIN  62  61  96 E9        30.09S FOG
MIDDLETON      CLOUDY    64  64 100 E7        30.10R
WATERTOWN      LGT RAIN  61  61 100 NE10      30.09F
MONROE         CLOUDY    61  61 100 NE10      30.07S FOG
JANESVILLE     CLOUDY    63  63 100 NE5       30.06S
$$

WIZ051-052-058>065-066-070>072-271100-
SOUTHEAST WISCONSIN

CITY           SKY/WX    TMP DP  RH WIND       PRES   REMARKS
MILWAUKEE      CLOUDY    65  62  90 NE10      30.09F
WAUKESHA       CLOUDY    61  59  94 NE7       30.10F
MILWAUKEE/TIMM LGT RAIN  61  59  94 NE7       30.10F
RACINE         CLOUDY    68  62  81 NE9       30.10S
BURLINGTON     CLOUDY    63  61  96 NE3       30.08F
KENOSHA        CLOUDY    67  64  90 NE3       30.09R
FOND DU LAC    LGT RAIN  63  60  90 E5        30.12F
SHEBOYGAN      HVY RAIN  62  60  93 CALM      30.14R FOG
WEST BEND      CLOUDY    61  59  94 NE7       30.12F
JUNEAU         LGT RAIN  61  60  96 E7        30.12F
$$

LSZ147-162-271100-
LAKE SUPERIOR

STATION/POSITION TIME  TEMP    WIND        PRES    WAVE
                       AIR SEA DIR/SP/G            HT/PER
                 (UTC) (F)     (DEG/KT/KT) (MB)    (FT/S)
W MID LAKE BUOY  0950   67 67  180/  8/ 10 1019.5S   1
DEVILS ISLAND    1000   63     180/  5/  6 1019.6F
PORT WING        0900   60     140/  2/  4 1019.6
SAXON HARBOR     0900   58     190/  5/  7 1020.0
$$

LMZ867-665-643>646-271100-
LAKE MICHIGAN

STATION/POSITION TIME  TEMP    WIND        PRES    WAVE
                       AIR SEA DIR/SP/G            HT/PER
                 (UTC) (F)     (DEG/KT/KT) (MB)    (FT/S)
CHAMBERS ISLAND  0900   65     270/  2/  3 1020.3R
N MID LAKE BUOY  0950   69 71  160/  4/  6 1020.0R   1
NORTHPORT PIER   0900   67     150/  4/  5 1020.3S
SISTER BAY       0937   63        CALM       N/A
KEWAUNEE LAKESHO 0900   60      40/  1/  3 1019.5F
SHEBOYGAN LAKESH 1000   61      40/  2/  2 1020.4R
PORT WASHINGTON  0900   64     190/  2/  7 1021.3R
ATWATER BUOY     1000   60      30/ 12/ 14   N/A
MILWAUKEE LAKESH 0910   65     300/ 11/ 13   N/A
S MID LAKE BUOY  0950   71 74   90/ 16/ 17 1017.5F   2/ 4
KENOSHA   LAKESH 1000   71      60/ 10/ 10 1018.3S
$$

TC  - TEMPERATURE IN CELSIUS
VSB - VISIBILITY IN STATUTE MILES
WCI - WIND CHILL INDEX
HX  - HEAT INDEX





USA.gov is the U.S. government's official web portal to all federal, state and local government web resources and services.